{"data":{"norad_id":53743,"epoch":"2026-09-20T21:40:55.863840Z","epoch_age_seconds":49580,"freshness":"FRESH","line1":"1 53743U 22107AV  26263.90342435  .00000206  00000+0  17228-4 0  9994","line2":"2 53743  53.1595  91.7011 0001135  91.6088 268.5044 15.34387871224287","mean_motion":15.34387871,"eccentricity":0.0001135,"inclination_deg":53.1595,"raan_deg":91.7011,"arg_perigee_deg":91.6088,"mean_anomaly_deg":268.5044,"bstar":1.7228e-5,"rev_number":22428,"period_min":93.848499927304,"perigee_km":461.96285092969,"apogee_km":463.51572984761,"semimajor_km":6840.8762903886,"source":"CELESTRAK","updated_at":"2026-09-21T09:00:32.989831Z"}}